Location: Go�ngahuizen
(53.0821°N, 5.8849°E)
Time: 18:19:44
(UTC+00:00)

STARLINK-1203 - Pass Details

Date: 09 April 2020
Orbit: 559 x 560 km, 53.0° (Epoch: 26 May)

Event Time Altitude Azimuth Distance (km) Brightness Sun altitude
Rises 18:56:45 0° 281° (W) 2,757 9.5 -5.2°
Reaches altitude 10° 18:59:00 10° 280° (W) 1,860 8.0 -5.5°
Maximum altitude 19:03:13 73° 196° (SSW) 593 3.8 -6.1°
Drops below altitude 10° 19:07:27 10° 111° (ESE) 1,857 5.6 -6.7°
Enters shadow 19:07:45 - 111° (ESE) 1,979 5.7 -6.7°
